Hourly Weather Barsuki

Today, 19 April, Monday

Time Temperature Precipitation Wind Pressure Humidity
00:00 +13°C° 0 mm 1 mps 716 mmHg 87%
01:00 +13°C° 0 mm 1 mps 716 mmHg 88%
02:00 +12°C° 0 mm 0 mps 716 mmHg 88%
03:00 +11°C° 0 mm 0 mps 716 mmHg 89%
04:00 +13°C° 0 mm 1 mps 716 mmHg 89%
05:00 +13°C° 0 mm 1 mps 715 mmHg 88%
06:00 +13°C° 0 mm 1 mps 715 mmHg 87%
07:00 +15°C° 0 mm 2 mps 715 mmHg 79%
08:00 +17°C° 0 mm 2 mps 715 mmHg 71%
09:00 +19°C° 0 mm 2 mps 716 mmHg 64%
10:00 +20°C° 0 mm 2 mps 715 mmHg 60%
11:00 +21°C° 0 mm 3 mps 715 mmHg 56%
12:00 +22°C° 0 mm 3 mps 715 mmHg 52%
13:00 +22°C° 0 mm 3 mps 715 mmHg 52%
14:00 +22°C° 0 mm 3 mps 715 mmHg 51%
15:00 +24°C° 0 mm 3 mps 715 mmHg 50%
16:00 +22°C° 0 mm 3 mps 715 mmHg 55%
17:00 +21°C° 0 mm 3 mps 715 mmHg 59%
18:00 +20°C° 0 mm 3 mps 715 mmHg 64%
19:00 +19°C° 0 mm 2 mps 715 mmHg 67%
20:00 +18°C° 0 mm 2 mps 715 mmHg 70%
21:00 +16°C° 0 mm 1 mps 716 mmHg 73%
22:00 +16°C° 0 mm 1 mps 716 mmHg 74%
23:00 +16°C° 0 mm 1 mps 715 mmHg 75%

Tomorrow, 20 April, Tuesday

Time Temperature Precipitation Wind Pressure Humidity
00:00 +14°C° 0 mm 0 mps 715 mmHg 75%
01:00 +15°C° 0 mm 1 mps 715 mmHg 76%
02:00 +14°C° 0 mm 1 mps 714 mmHg 78%
03:00 +14°C° 0 mm 1 mps 713 mmHg 79%
04:00 +14°C° 0 mm 1 mps 713 mmHg 78%
05:00 +14°C° 0 mm 1 mps 712 mmHg 77%
06:00 +14°C° 0 mm 2 mps 712 mmHg 77%
07:00 +16°C° 0 mm 2 mps 712 mmHg 71%
08:00 +18°C° 0 mm 2 mps 711 mmHg 65%
09:00 +19°C° 0 mm 2 mps 711 mmHg 59%
10:00 +21°C° 0 mm 2 mps 711 mmHg 54%
11:00 +24°C° 0 mm 2 mps 710 mmHg 48%
12:00 +26°C° 0 mm 2 mps 710 mmHg 43%
13:00 +27°C° 0 mm 2 mps 710 mmHg 42%
14:00 +27°C° 0 mm 2 mps 710 mmHg 41%
15:00 +28°C° 0 mm 2 mps 710 mmHg 40%
16:00 +26°C° 0 mm 2 mps 709 mmHg 46%
17:00 +25°C° 0 mm 2 mps 709 mmHg 53%
18:00 +23°C° 0 mm 2 mps 709 mmHg 59%
19:00 +21°C° 0 mm 2 mps 710 mmHg 61%
20:00 +20°C° 0 mm 3 mps 711 mmHg 63%
21:00 +19°C° 0 mm 4 mps 711 mmHg 65%
22:00 +18°C° 0 mm 4 mps 712 mmHg 72%
23:00 +17°C° 0 mm 4 mps 713 mmHg 79%

Day after tomorrow, 21 April, Wednesday

Time Temperature Precipitation Wind Pressure Humidity
00:00 +14°C° 0 mm 5 mps 714 mmHg 86%
01:00 +14°C° 0.2 mm 4 mps 715 mmHg 83%
02:00 +13°C° 0.2 mm 3 mps 715 mmHg 80%
03:00 +13°C° 0.2 mm 3 mps 716 mmHg 77%
04:00 +14°C° 0 mm 2 mps 716 mmHg 76%
05:00 +13°C° 0 mm 2 mps 716 mmHg 74%
06:00 +13°C° 0 mm 1 mps 716 mmHg 72%
07:00 +14°C° 0 mm 2 mps 717 mmHg 68%
08:00 +14°C° 0 mm 2 mps 717 mmHg 64%
09:00 +13°C° 0 mm 3 mps 717 mmHg 60%
10:00 +14°C° 0.1 mm 3 mps 717 mmHg 59%
11:00 +14°C° 0.1 mm 3 mps 717 mmHg 58%
12:00 +16°C° 0.1 mm 3 mps 717 mmHg 56%
13:00 +16°C° 0.1 mm 3 mps 717 mmHg 57%
14:00 +16°C° 0.1 mm 3 mps 717 mmHg 58%
15:00 +14°C° 0.1 mm 3 mps 717 mmHg 59%
16:00 +15°C° 0.2 mm 2 mps 717 mmHg 64%
17:00 +14°C° 0.2 mm 2 mps 718 mmHg 69%
18:00 +13°C° 0.2 mm 1 mps 718 mmHg 74%
19:00 +13°C° 0 mm 1 mps 719 mmHg 75%
20:00 +13°C° 0 mm 1 mps 719 mmHg 76%
21:00 +13°C° 0 mm 1 mps 719 mmHg 77%
22:00 +12°C° 0 mm 1 mps 719 mmHg 79%
23:00 +12°C° 0 mm 1 mps 719 mmHg 80%

22 April, Thursday

Time Temperature Precipitation Wind Pressure Humidity
00:00 +11°C° 0 mm 0 mps 719 mmHg 82%
01:00 +12°C° 0 mm 1 mps 719 mmHg 82%
02:00 +12°C° 0 mm 1 mps 719 mmHg 82%
03:00 +12°C° 0 mm 1 mps 719 mmHg 83%
04:00 +12°C° 0 mm 1 mps 719 mmHg 83%
05:00 +11°C° 0 mm 1 mps 719 mmHg 83%
06:00 +11°C° 0 mm 1 mps 719 mmHg 84%
07:00 +11°C° 0.1 mm 1 mps 719 mmHg 83%
08:00 +10°C° 0.1 mm 2 mps 720 mmHg 83%
09:00 +10°C° 0.1 mm 3 mps 720 mmHg 82%
10:00 +10°C° 0.1 mm 2 mps 721 mmHg 83%
11:00 +9°C° 0.1 mm 2 mps 721 mmHg 84%
12:00 +10°C° 0.1 mm 1 mps 721 mmHg 85%
13:00 +10°C° 0 mm 1 mps 721 mmHg 83%
14:00 +11°C° 0 mm 1 mps 720 mmHg 81%
15:00 +11°C° 0 mm 1 mps 720 mmHg 80%
16:00 +11°C° 0.1 mm 1 mps 720 mmHg 80%
17:00 +11°C° 0.1 mm 1 mps 720 mmHg 80%
18:00 +11°C° 0.1 mm 1 mps 720 mmHg 81%
19:00 +11°C° 1.3 mm 1 mps 720 mmHg 85%
20:00 +10°C° 1.3 mm 1 mps 720 mmHg 90%
21:00 +9°C° 1.3 mm 1 mps 721 mmHg 95%
22:00 +9°C° 2 mm 1 mps 720 mmHg 95%
23:00 +9°C° 2 mm 1 mps 720 mmHg 96%

23 April, Friday

Time Temperature Precipitation Wind Pressure Humidity
00:00 +9°C° 2 mm 1 mps 720 mmHg 96%
01:00 +9°C° 1.7 mm 1 mps 720 mmHg 96%
02:00 +9°C° 1.7 mm 1 mps 720 mmHg 95%
03:00 +9°C° 1.7 mm 1 mps 721 mmHg 95%
04:00 +9°C° 1.3 mm 1 mps 721 mmHg 95%
05:00 +9°C° 1.3 mm 1 mps 721 mmHg 95%
06:00 +9°C° 1.3 mm 1 mps 721 mmHg 94%
07:00 +9°C° 1.1 mm 1 mps 721 mmHg 93%
08:00 +9°C° 1.1 mm 1 mps 721 mmHg 92%
09:00 +8°C° 1.1 mm 2 mps 722 mmHg 91%
10:00 +9°C° 0.5 mm 1 mps 722 mmHg 90%
11:00 +9°C° 0.5 mm 1 mps 722 mmHg 89%
12:00 +10°C° 0.5 mm 1 mps 722 mmHg 87%
13:00 +9°C° 0 mm 2 mps 722 mmHg 84%
14:00 +10°C° 0 mm 2 mps 721 mmHg 80%
15:00 +12°C° 0 mm 2 mps 721 mmHg 77%
16:00 +12°C° 0 mm 1 mps 721 mmHg 76%
17:00 +13°C° 0 mm 1 mps 721 mmHg 76%
18:00 +12°C° 0 mm 0 mps 721 mmHg 76%
19:00 +12°C° 0 mm 1 mps 721 mmHg 79%
20:00 +10°C° 0 mm 1 mps 721 mmHg 82%
21:00 +9°C° 0 mm 1 mps 721 mmHg 85%
22:00 +9°C° 0 mm 1 mps 721 mmHg 84%
23:00 +9°C° 0 mm 1 mps 720 mmHg 83%

24 April, Saturday

Time Temperature Precipitation Wind Pressure Humidity
00:00 +8°C° 0 mm 1 mps 720 mmHg 83%
01:00 +8°C° 0 mm 1 mps 720 mmHg 81%
02:00 +8°C° 0 mm 1 mps 720 mmHg 80%
03:00 +8°C° 0 mm 1 mps 720 mmHg 79%
04:00 +8°C° 0 mm 1 mps 720 mmHg 78%
05:00 +8°C° 0 mm 1 mps 719 mmHg 77%
06:00 +8°C° 0 mm 1 mps 719 mmHg 76%
07:00 +10°C° 0 mm 2 mps 719 mmHg 70%
08:00 +13°C° 0 mm 2 mps 719 mmHg 64%
09:00 +14°C° 0 mm 3 mps 719 mmHg 57%
10:00 +16°C° 0 mm 3 mps 718 mmHg 54%
11:00 +18°C° 0 mm 4 mps 718 mmHg 50%
12:00 +19°C° 0 mm 4 mps 718 mmHg 46%
13:00 +19°C° 0 mm 4 mps 717 mmHg 46%
14:00 +20°C° 0 mm 4 mps 717 mmHg 46%
15:00 +20°C° 0 mm 4 mps 717 mmHg 46%
16:00 +19°C° 0 mm 4 mps 717 mmHg 52%
17:00 +18°C° 0 mm 4 mps 717 mmHg 59%
18:00 +16°C° 0 mm 3 mps 716 mmHg 65%
19:00 +14°C° 0 mm 3 mps 716 mmHg 69%
20:00 +13°C° 0 mm 2 mps 716 mmHg 73%
21:00 +12°C° 0 mm 1 mps 716 mmHg 77%
22:00 +12°C° 0 mm 1 mps 716 mmHg 77%
23:00 +11°C° 0 mm 1 mps 716 mmHg 77%
Show more